TimeCST,TemperatureF,Dew PointF,Humidity,Sea Level PressureIn,VisibilityMPH,Wind Direction,Wind SpeedMPH,Gust SpeedMPH,PrecipitationIn,Events,Conditions,WindDirDegrees,DateUTC
12:10 AM,10.0,6.1,84,30.37,0.2,South,6.9,-,N/A,Fog,Light Freezing Fog,170,2013-12-11 06:10:00
12:53 AM,8.1,3.9,83,30.38,0.2,South,5.8,-,N/A,Fog,Light Freezing Fog,190,2013-12-11 06:53:00
1:04 AM,3.9,3.0,96,30.36,0.2,Calm,Calm,-,N/A,Fog,Light Freezing Fog,0,2013-12-11 07:04:00
1:53 AM,8.1,5.0,87,30.39,0.2,South,5.8,-,N/A,Fog,Light Freezing Fog,190,2013-12-11 07:53:00
2:53 AM,5.0,3.9,95,30.39,0.2,SSE,4.6,-,N/A,Fog,Light Freezing Fog,160,2013-12-11 08:53:00
3:53 AM,7.0,3.9,87,30.38,0.2,South,4.6,-,N/A,Fog,Light Freezing Fog,180,2013-12-11 09:53:00
4:53 AM,8.1,5.0,87,30.38,0.2,South,5.8,-,N/A,Fog,Light Freezing Fog,180,2013-12-11 10:53:00
5:53 AM,9.0,6.1,88,30.38,0.2,SSW,4.6,-,N/A,Fog,Light Freezing Fog,200,2013-12-11 11:53:00
6:53 AM,7.0,3.9,87,30.39,0.2,South,3.5,-,N/A,Fog,Light Freezing Fog,180,2013-12-11 12:53:00
7:53 AM,10.9,9.0,92,30.40,0.2,SSE,5.8,-,N/A,Fog,Light Freezing Fog,160,2013-12-11 13:53:00
8:53 AM,14.0,12.0,92,30.41,0.2,South,5.8,-,N/A,Fog,Light Freezing Fog,180,2013-12-11 14:53:00
9:28 AM,16.0,14.0,92,30.42,1.2,NW,6.9,-,N/A,,Scattered Clouds,320,2013-12-11 15:28:00
9:53 AM,17.1,16.0,96,30.43,1.5,South,3.5,-,N/A,,Clear,170,2013-12-11 15:53:00
10:12 AM,16.0,12.9,88,30.39,2.5,SSE,8.1,-,N/A,,Clear,150,2013-12-11 16:12:00
10:30 AM,21.9,19.0,89,30.38,3.0,SW,12.7,-,N/A,,Clear,220,2013-12-11 16:30:00
10:53 AM,26.1,19.9,78,30.42,6.0,WSW,11.5,-,N/A,,Haze,250,2013-12-11 16:53:00
11:53 AM,27.0,19.0,72,30.41,7.0,WNW,16.1,-,N/A,,Clear,290,2013-12-11 17:53:00
12:53 PM,28.9,19.9,69,30.42,6.0,WNW,10.4,-,N/A,,Haze,290,2013-12-11 18:53:00
1:53 PM,30.9,21.0,67,30.43,7.0,WNW,19.6,-,N/A,,Partly Cloudy,300,2013-12-11 19:53:00
2:07 PM,30.9,21.0,67,30.41,7.0,NW,13.8,-,N/A,,Mostly Cloudy,310,2013-12-11 20:07:00
2:21 PM,28.9,19.0,67,30.42,7.0,NW,17.3,-,N/A,,Scattered Clouds,320,2013-12-11 20:21:00
2:38 PM,28.9,19.0,67,30.44,8.0,NNW,19.6,-,N/A,,Mostly Cloudy,330,2013-12-11 20:38:00
2:53 PM,28.9,19.0,67,30.47,8.0,NNW,17.3,-,N/A,,Overcast,340,2013-12-11 20:53:00
3:53 PM,26.1,17.1,69,30.51,9.0,NNW,16.1,-,N/A,,Overcast,330,2013-12-11 21:53:00
4:39 PM,24.1,15.1,69,30.51,10.0,NNW,12.7,-,N/A,,Overcast,340,2013-12-11 22:39:00
4:49 PM,24.8,15.8,69,30.52,9.0,North,12.7,-,N/A,,Overcast,350,2013-12-11 22:49:00
4:53 PM,24.1,16.0,71,30.54,8.0,NNW,16.1,-,N/A,,Overcast,340,2013-12-11 22:53:00
5:38 PM,23.0,15.1,72,30.54,10.0,NNW,10.4,-,0.00,,Overcast,340,2013-12-11 23:38:00
5:53 PM,21.9,14.0,72,30.56,10.0,NNW,10.4,-,0.00,,Overcast,330,2013-12-11 23:53:00
6:34 PM,21.0,14.0,74,30.56,9.0,NNW,9.2,-,0.00,,Mostly Cloudy,340,2013-12-12 00:34:00
6:48 PM,19.4,12.2,74,30.56,10.0,NNW,6.9,-,0.00,,Scattered Clouds,340,2013-12-12 00:48:00
6:53 PM,18.0,12.0,78,30.59,10.0,NNW,6.9,-,0.00,,Mostly Cloudy,340,2013-12-12 00:53:00
7:10 PM,18.0,12.0,78,30.57,9.0,NNW,5.8,-,N/A,,Mostly Cloudy,330,2013-12-12 01:10:00
7:53 PM,18.0,12.0,78,30.60,9.0,NW,5.8,-,N/A,,Scattered Clouds,320,2013-12-12 01:53:00
8:53 PM,16.0,9.0,74,30.61,9.0,NNW,12.7,-,N/A,,Clear,330,2013-12-12 02:53:00
9:53 PM,12.0,3.0,67,30.63,10.0,NW,10.4,-,N/A,,Clear,320,2013-12-12 03:53:00
10:53 PM,10.9,-0.9,59,30.65,10.0,NW,9.2,-,N/A,,Clear,320,2013-12-12 04:53:00
11:53 PM,9.0,-2.0,61,30.66,10.0,NW,10.4,-,N/A,,Clear,320,2013-12-12 05:53:00